SL-12 DEB, 41560

Orbit data source: Space-Track

SL-12 DEB, 41560 is space debris in HEO originally from a launch on Thu, 25 Dec 2008 UTC launched from the Tyuratam Missile And Space Complex (TTMTR). Debris objects in space refer to the collection of defunct objects orbiting the Earth. Examples of debris include non-operational satellites, rocket bodies, and fragments generated from explosions, collisions, or faulty payload assembly.

Loading next visibility...
Identifier
41560, 2008-067J
Orbit
HEO
Last TLE update
3 days ago
Origin
Manufacturer
RKKE
Mission
Spacecraft
Bus & Motor
Unknown
Mass
Unknown
Launch date (UTC)
2008-12-25 (17 years ago)
Launch vehicle
Unknown
Launch site
Tyuratam Missile And Space Complex (TTMTR)
Object type
Payload
Rocket body
Debris
Shape & HBR
Unknown
Radar Cross Section
Medium (>0.1 m² and <1 m²)

Expand to show TLE details & history

TLE from 3 days ago
0 SL-12 DEB
1 41560U 08067J   25179.44602746  .00000347  00000-0  37221-2 0  9995
2 41560  65.3958 303.0125 5608607 256.3085  38.3477  4.22934768142722
Epoch: 2025-06-28T10:42Z
TLE epoch observation values (Epoch: 2025-06-28T10:42:16.772Z)
Latitude
-0.00006°
Longitude
-134.35722°
Altitude
6,401.73 km
Speed
6.141 km/s
True Right ascension
20h 11m 59s
True Declination
0° 00' 00"
Sunlit
Object was in daylight at epoch
Visualization orbit readout
Latitude
61.64034°
Longitude
-77.47154°
Altitude
18,832.585 km
Speed
2.638 km/s
Apparent Right ascension
01h 31m 49s
Apparent Declination
61° 58' 24"
Sunlit
Object is in daylight
Visualization observer readout
Local Sidereal Time
20:37:58
Azimuth
37.304° NE
Elevation
41.991°
Doppler factor
1
Orbital elements
Apogee altitude
18,830.71 km
Perigee altitude
714.229 km
Semi-major axis
16,150.607 km
Eccentricity
0.56086
Inclination
65.3958°
RAAN
303.0125°
Arg. of periapsis
256.3085°
True anomaly
Unknown
Mean anomaly
38.3477°
Eccentric anomaly
Unknown
Mean motion
1.05745 °/min
Orbital period
340.44 mins
BSTAR
0.0037221
Loading maneuver chart data...
Loading SW <> Apogee altitude chart data...
Loading historical data...
Loading historical data...
Loading historical data...
Loading historical data...
Loading historical data...
Loading historical data...
Loading historical data...

SL-12 DEB Visibility forecast

Observer location: undefined°, undefined°

Span
Click to sort rows by Start time (UTC) header in descending order
Start Az.
Max El. time (UTC)
Max El. Az.
Max El.
End time (UTC)
End Az.
84 mins2025-07-01 08:59:45.907Z37.328° NE2025-07-01 08:59:45.907Z37.328° NE33.786°2025-07-01 10:23:45.907Z34.815° NE
260 mins2025-07-01 12:43:45.907Z260.454° W2025-07-01 16:08:45.907Z28.664° NE40.711°2025-07-01 17:03:45.907Z110.459° ESE
134 mins2025-07-01 20:30:45.907Z333.451° NNW2025-07-01 22:11:45.907Z298.96° NW27.612°2025-07-01 22:44:45.907Z245.552° WSW
193 mins2025-07-02 05:36:45.907Z115.665° SE2025-07-02 06:47:45.907Z59.53° ENE31.662°2025-07-02 08:49:45.907Z28.601° NE
|